TimeCST,TemperatureF,Dew PointF,Humidity,Sea Level PressureIn,VisibilityMPH,Wind Direction,Wind SpeedMPH,Gust SpeedMPH,PrecipitationIn,Events,Conditions,WindDirDegrees,DateUTC
12:53 AM,43.0,35.1,74,30.16,10.0,West,4.6,-,N/A,,Clear,270,2013-01-20 06:53:00
1:53 AM,39.9,34.0,79,30.18,10.0,Calm,Calm,-,N/A,,Clear,0,2013-01-20 07:53:00
2:53 AM,35.1,33.1,92,30.20,10.0,Calm,Calm,-,N/A,,Clear,0,2013-01-20 08:53:00
3:53 AM,39.0,34.0,82,30.20,10.0,WNW,3.5,-,N/A,,Clear,300,2013-01-20 09:53:00
4:53 AM,34.0,30.0,85,30.22,10.0,NNW,6.9,-,N/A,,Clear,330,2013-01-20 10:53:00
5:53 AM,33.1,28.9,85,30.24,10.0,North,6.9,-,N/A,,Clear,350,2013-01-20 11:53:00
6:53 AM,37.0,28.9,73,30.26,10.0,North,8.1,-,N/A,,Clear,10,2013-01-20 12:53:00
7:53 AM,37.9,28.9,70,30.28,10.0,North,8.1,-,N/A,,Clear,360,2013-01-20 13:53:00
8:53 AM,43.0,28.9,58,30.30,10.0,North,9.2,-,N/A,,Clear,10,2013-01-20 14:53:00
9:53 AM,44.1,27.0,51,30.31,10.0,NE,12.7,-,N/A,,Clear,50,2013-01-20 15:53:00
10:53 AM,45.0,26.1,48,30.31,10.0,NNE,9.2,-,N/A,,Clear,30,2013-01-20 16:53:00
11:53 AM,45.0,24.1,44,30.28,10.0,ENE,8.1,-,N/A,,Clear,60,2013-01-20 17:53:00
12:53 PM,46.0,27.0,47,30.26,10.0,East,8.1,-,N/A,,Clear,80,2013-01-20 18:53:00
1:53 PM,46.0,27.0,47,30.25,10.0,East,6.9,-,N/A,,Clear,80,2013-01-20 19:53:00
2:53 PM,46.0,28.0,50,30.24,10.0,East,5.8,-,N/A,,Clear,90,2013-01-20 20:53:00
3:53 PM,46.0,26.1,46,30.24,10.0,East,6.9,-,N/A,,Clear,80,2013-01-20 21:53:00
4:53 PM,44.1,25.0,47,30.24,10.0,ENE,5.8,-,N/A,,Clear,70,2013-01-20 22:53:00
5:53 PM,41.0,21.9,47,30.25,10.0,ENE,5.8,-,N/A,,Clear,60,2013-01-20 23:53:00
6:53 PM,37.9,24.1,57,30.25,10.0,ENE,5.8,-,N/A,,Clear,70,2013-01-21 00:53:00
7:53 PM,36.0,24.1,62,30.24,10.0,NE,4.6,-,N/A,,Clear,40,2013-01-21 01:53:00
8:53 PM,35.1,21.9,59,30.25,10.0,NNE,8.1,-,N/A,,Clear,30,2013-01-21 02:53:00
9:53 PM,35.1,21.0,57,30.25,10.0,NNE,8.1,-,N/A,,Clear,20,2013-01-21 03:53:00
10:53 PM,33.1,19.0,56,30.26,10.0,NNE,10.4,-,N/A,,Clear,20,2013-01-21 04:53:00
11:53 PM,32.0,19.0,59,30.27,10.0,North,9.2,-,N/A,,Clear,10,2013-01-21 05:53:00